User: anonymous   Login
Location: Unspecified
(0.0000°N, 0.0000°E)
Time: 21:18:56
(UTC+00:00)
Language:

Kosmos-2279 - Orbit

View from above orbital plane
View from above orbital plane
View from above satellite
View from above satellite

Ground track
Ground track

The orbit data is extracted from the following two-line orbital elements,

1 23092U 94024A   18015.90147920 +.00000028 +00000-0 +13416-4 0  9991
2 23092 082.9504 335.6844 0034399 208.0499 151.8806 13.76359881191134
Epoch (UTC): 15 January 2018 21:38:07
Eccentricity: 0.0034399
inclination: 82.9504°
perigee height: 951 km
apogee height: 1002 km
right ascension of ascending node: 335.6844°
argument of perigee: 208.0499°
revolutions per day: 13.76359881
mean anomaly at epoch: 151.8806°
orbit number at epoch: 19113

The dashed part of the orbit path shows where the satellite is in the earth's shadow,  

DLR